Date String (YYYY-MM-DD hh:mm:ss) UTC,Instrument flags,Ambient pressure (hPa),Sample flow (lpm),Bypass flow (lpm),Sample temperature (°C),Ambient temperature (°C),ASC tube jacket temperature (°C),LED temperature (°C),Box temperature (°C),Sample RH (%),Span deviation,Mass concentration (μg/m³),Mass concentration (μg/m³),Mass concentration (μg/m³)
DateTimeUTC,F1_M11,P_M11,Q1_M11,Q2_M11,T1_M11,T2_M11,T3_M11,T4_M11,T5_M11,U1_M11,ZSPAN_M11,X0_M11,X2_M11,X1_M11
2023-02-09 06:00:00,,0824.7,5.01,0.00,22.2,20.6,00.0,31.1,23.8,05.9,0000.0,0001.90,0001.13,0000.85
2023-02-09 06:01:00,,0824.7,4.98,0.00,22.2,21.2,00.0,31.1,24.0,05.5,0000.0,0001.95,0001.13,0000.86
2023-02-09 06:02:00,,0824.7,4.97,0.00,22.3,22.1,00.0,31.1,24.2,05.6,0000.0,0002.00,0001.13,0000.86
2023-02-09 06:03:00,,0824.7,4.99,0.00,22.4,22.9,00.0,31.1,24.5,05.7,0000.0,0002.08,0001.17,0000.88
2023-02-09 06:04:00,,0824.7,4.98,0.00,22.5,22.6,00.0,31.2,24.4,05.5,0000.0,0002.07,0001.17,0000.89
2023-02-09 06:05:00,,0824.7,4.98,0.00,22.5,22.2,00.0,31.2,24.3,05.7,0000.0,0002.08,0001.18,0000.90
2023-02-09 06:06:00,,0824.8,5.01,0.00,22.5,21.9,00.0,31.2,24.3,05.7,0000.0,0002.06,0001.18,0000.90
2023-02-09 06:07:00,,0824.7,4.91,0.00,22.5,21.6,00.0,31.3,24.2,06.0,0000.0,0002.10,0001.20,0000.91
2023-02-09 06:08:00,,0824.8,4.95,0.00,22.5,21.4,00.0,31.3,24.2,06.0,0000.0,0002.09,0001.18,0000.90
2023-02-09 06:09:00,,0824.8,4.98,0.00,22.5,21.3,00.0,31.3,24.1,05.8,0000.0,0002.04,0001.16,0000.89
2023-02-09 06:10:00,,0824.8,5.00,0.00,22.4,21.1,00.0,31.3,24.1,05.9,0000.0,0001.95,0001.14,0000.90
2023-02-09 06:11:00,,0824.9,4.99,0.00,22.4,21.0,00.0,31.3,24.1,05.7,0000.0,0001.84,0001.11,0000.90
2023-02-09 06:12:00,,0824.9,4.98,0.00,22.4,21.0,00.0,31.3,24.0,06.0,0000.0,0001.88,0001.15,0000.90
2023-02-09 06:13:00,,0824.9,5.02,0.00,22.4,20.9,00.0,31.3,24.0,06.1,0000.0,0001.73,0001.14,0000.90
2023-02-09 06:14:00,,0824.9,5.01,0.00,22.3,20.8,00.0,31.3,24.0,06.2,0000.0,0001.69,0001.13,0000.89
2023-02-09 06:15:00,,0824.9,5.02,0.00,22.3,20.7,00.0,31.2,23.9,06.0,0000.0,0001.68,0001.12,0000.88
2023-02-09 06:16:00,,0824.9,5.00,0.00,22.3,20.7,00.0,31.2,23.9,06.3,0000.0,0001.72,0001.13,0000.89
2023-02-09 06:17:00,,0825.0,4.98,0.00,22.3,20.7,00.0,31.2,23.9,06.2,0000.0,0002.05,0001.16,0000.90
2023-02-09 06:18:00,,0825.0,5.01,0.00,22.3,20.6,00.0,31.2,23.9,06.0,0000.0,0002.11,0001.17,0000.90
2023-02-09 06:19:00,,0825.2,5.00,0.00,22.2,20.6,00.0,31.2,23.9,06.3,0000.0,0002.12,0001.18,0000.91
2023-02-09 06:20:00,,0825.2,5.03,0.00,22.2,20.6,00.0,31.2,23.9,06.3,0000.0,0002.17,0001.19,0000.91
2023-02-09 06:21:00,,0825.2,5.09,0.00,22.2,21.0,00.0,31.1,24.0,06.2,0000.0,0002.18,0001.15,0000.90
2023-02-09 06:22:00,,0825.2,5.01,0.00,22.3,22.0,00.0,31.1,24.2,06.6,0000.0,0002.17,0001.14,0000.91
2023-02-09 06:23:00,,0825.3,5.03,0.00,22.4,23.0,00.0,31.1,24.5,06.4,0000.0,0002.01,0001.09,0000.90
2023-02-09 06:24:00,,0825.3,5.00,0.00,22.5,22.9,00.0,31.2,24.5,06.0,0000.0,0002.04,0001.10,0000.90
2023-02-09 06:25:00,,0825.3,5.01,0.00,22.6,22.5,00.0,31.2,24.5,06.3,0000.0,0002.11,0001.12,0000.89
2023-02-09 06:26:00,,0825.3,5.01,0.00,22.6,22.1,00.0,31.3,24.4,06.9,0000.0,0002.14,0001.10,0000.87
2023-02-09 06:27:00,,0825.3,5.03,0.00,22.6,21.8,00.0,31.3,24.4,07.0,0000.0,0002.19,0001.08,0000.86
2023-02-09 06:28:00,,0825.4,4.93,0.00,22.6,21.6,00.0,31.3,24.3,07.4,0000.0,0001.84,0001.04,0000.84
2023-02-09 06:29:00,,0825.3,5.06,0.00,22.5,21.5,00.0,31.3,24.3,07.7,0000.0,0001.74,0001.01,0000.82
2023-02-09 06:30:00,,0825.4,4.97,0.00,22.6,21.4,00.0,31.3,24.3,07.6,0000.0,0001.72,0000.99,0000.81
2023-02-09 06:31:00,,0825.4,5.02,0.00,22.6,21.4,00.0,31.3,24.3,07.6,0000.0,0001.76,0001.01,0000.80
2023-02-09 06:32:00,,0825.4,4.91,0.00,22.6,21.3,00.0,31.3,24.3,07.6,0000.0,0001.94,0001.06,0000.79
2023-02-09 06:33:00,,0825.4,4.99,0.00,22.6,21.3,00.0,31.3,24.3,07.7,0000.0,0003.69,0001.09,0000.78
2023-02-09 06:34:00,,0825.4,5.05,0.00,22.6,21.2,00.0,31.3,24.3,07.7,0000.0,0003.69,0001.09,0000.77
2023-02-09 06:35:00,,0825.5,5.04,0.00,22.5,21.2,00.0,31.3,24.3,08.0,0000.0,0003.71,0001.09,0000.77
2023-02-09 06:36:00,,0825.4,4.99,0.00,22.5,21.2,00.0,31.3,24.3,08.2,0000.0,0003.75,0001.08,0000.78
2023-02-09 06:37:00,,0825.4,5.00,0.00,22.5,21.2,00.0,31.3,24.2,08.3,0000.0,0003.77,0001.10,0000.77
2023-02-09 06:38:00,,0825.5,5.04,0.00,22.5,21.2,00.0,31.3,24.2,08.4,0000.0,0003.93,0001.17,0000.78
2023-02-09 06:39:00,,0825.5,5.04,0.00,22.5,21.1,00.0,31.3,24.2,08.8,0000.0,0004.05,0001.20,0000.78
2023-02-09 06:40:00,,0825.4,5.01,0.00,22.5,21.0,00.0,31.3,24.2,09.2,0000.0,0004.23,0001.28,0000.80
2023-02-09 06:41:00,,0825.5,4.99,0.00,22.5,21.0,00.0,31.3,24.1,09.3,0000.0,0004.72,0001.33,0000.82
2023-02-09 06:42:00,,0825.6,5.01,0.00,22.5,20.9,00.0,31.3,24.1,09.6,0000.0,0005.83,0001.44,0000.84
2023-02-09 06:43:00,,0825.6,5.02,0.00,22.4,20.9,00.0,31.3,24.1,09.6,0000.0,0005.99,0001.48,0000.86
2023-02-09 06:44:00,,0825.6,5.01,0.00,22.4,20.9,00.0,31.3,24.1,09.4,0000.0,0005.11,0001.50,0000.86
2023-02-09 06:45:00,,0825.6,4.97,0.00,22.4,20.8,00.0,31.3,24.1,09.3,0000.0,0004.97,0001.53,0000.88
2023-02-09 06:46:00,,0825.7,5.01,0.00,22.4,20.7,00.0,31.3,24.1,09.3,0000.0,0005.24,0001.59,0000.89
2023-02-09 06:47:00,,0825.7,5.01,0.00,22.4,20.7,00.0,31.3,24.1,09.3,0000.0,0005.25,0001.58,0000.88
2023-02-09 06:48:00,,0826.3,5.01,0.00,22.4,20.7,00.0,31.3,24.1,09.3,0000.0,0006.14,0001.61,0000.89
2023-02-09 06:49:00,,0825.8,5.01,0.00,22.3,20.7,00.0,31.2,24.1,09.3,0000.0,0006.28,0001.62,0000.90
2023-02-09 06:50:00,,0825.9,5.01,0.00,22.3,20.7,00.0,31.2,24.1,09.2,0000.0,0007.01,0001.65,0000.93
2023-02-09 06:51:00,,0825.9,4.99,0.00,22.4,21.2,00.0,31.2,24.2,09.2,0000.0,0007.43,0001.64,0000.93
2023-02-09 06:52:00,,0826.0,5.04,0.00,22.5,22.2,00.0,31.2,24.4,09.5,0000.0,0007.19,0001.66,0000.92
2023-02-09 06:53:00,,0826.0,4.98,0.00,22.6,23.0,00.0,31.2,24.6,09.3,0000.0,0006.31,0001.60,0000.91
2023-02-09 06:54:00,,0825.9,5.00,0.00,22.6,22.8,00.0,31.3,24.6,09.2,0000.0,0006.24,0001.58,0000.90
2023-02-09 06:55:00,,0825.9,5.06,0.00,22.6,22.3,00.0,31.3,24.5,09.2,0000.0,0005.84,0001.54,0000.91
2023-02-09 06:56:00,,0825.9,5.00,0.00,22.6,21.9,00.0,31.3,24.4,08.5,0000.0,0006.13,0001.59,0000.93
2023-02-09 06:57:00,,0826.0,5.04,0.00,22.6,21.6,00.0,31.3,24.3,08.3,0000.0,0006.07,0001.57,0000.95
2023-02-09 06:58:00,,0826.0,4.99,0.00,22.6,21.4,00.0,31.4,24.2,07.9,0000.0,0005.97,0001.58,0000.97
2023-02-09 06:59:00,,0825.9,5.00,0.00,22.5,21.3,00.0,31.4,24.3,07.8,0000.0,0005.23,0001.64,0001.00
